NILESAT 102

Last updated on Fri Aug 17 2018 00:20:38 GMT+0000 (Coordinated Universal Time)

1 26470U 00046B 18228.11332477 -.00000039 00000-0 00000+0 0 9990 2 26470 2.5729 81.7587 0004404 28.5163 156.8120 0.98041313 65923
UTC large
Height (km)
Speed (km/s)
/
Latitude / Longitude
Inclination (degrees)
Orbital Period (minutes)
Azimuth
Elevation
Range (km)
Doppler Factor

Next 0 passes for location: London (51.5072 / 0.1276)

Sorry there are no passes over London.